STARLINK-1348 (45561 NORAD) Tracking and Keplerian Element Data

This shows tracking and keplerian element data for the satellite.

Feedback or suggestion? Click here.




ElementValue
Catalog45561
NameSTARLINK-1348
Epoch Orbit572
Epoch Day145.75001157
Epoch Year2020
RAAN241.7508
Inclination52.9977
Eccentricity0.0001136
Argument of Perigee80.923
Mean Anonmoly295.6436
Mean Motion15.62735505
Decay Rate0.00050082
L11 45561U 20025AG 20145.75001157 .00050082 00000-0 54978-3 0 9999
L22 45561 52.9977 241.7508 0001136 80.9230 295.6436 15.62735505 5720

Live tracking and technical data element details for STARLINK-1348 (NORAD 45561). STARLINK-1348 can be tracked NOW for your location showing map with azimuth and elevation plus other details from your city location.

Track the satellite on the map from your city or location and see movement details for azimuth, elevation, latitude, longitude, range, height, and movement on the map or in text.







IsCatalogInMostPopularTable: catalog: 45561, numindb: 7
Update: records affected: 1



GetName: 45561 STARLINK-1348

Hit Count: updated at: Tue, 26 May 2020 02:30:44 GMT